Hourly Data Report for October 24, 2019

All times are specified in Local Standard Time (LST). Add 1 hour to adjust for Daylight Saving Time where and when it is observed.

SEPT-ILES
QUEBEC
Current Station Operator: ECCC - MSC

50°13'00.000" N
66°15'00.000" W
52.60 m
7047914
71279
XZV

Download Data

Hourly Data (October 2019)
Hourly Data Report for October 24, 2019
TIME Temp Definition
°C
Dew Point Definition
°C
Rel Hum Definition
%
Wind Dir Definition
10's deg

Wind Spd Definition
km/h
Visibility Definition
km
Stn Press Definition
kPa
Hmdx Definition


Wind Chill Definition


Weather Definition


00:00 6.5 6.2 98 7 8   100.05     LegendNANA
01:00 6.6 6.3 98 5 6   99.98     LegendNANA
02:00 5.5 5.2 98 36 7   99.96     LegendNANA
03:00 5.4 5.0 97 33 9   100.00     LegendNANA
04:00 5.5 5.2 97 31 7   100.05     LegendNANA
05:00 5.3 4.7 96 28 9   100.12     LegendNANA
06:00 3.8 3.3 97 31 4   100.20     LegendNANA
07:00 5.3 4.2 93 26 12   100.29     LegendNANA
08:00 6.7 4.9 89 26 6   100.33     LegendNANA
09:00 6.9 5.3 89 23 7   100.40     LegendNANA
10:00 6.7 5.9 94 24 7   100.45     LegendNANA
11:00 8.1 6.6 91 25 4   100.42     LegendNANA
12:00 8.0 6.3 89 23 6   100.43     LegendNANA
13:00 7.7 6.0 89 26 5   100.45     LegendNANA
14:00 7.8 6.1 89 24 9   100.50     LegendNANA
15:00 7.4 5.9 90 26 8   100.50     LegendNANA
16:00 7.5 5.4 87 26 11   100.53     LegendNANA
17:00 7.1 5.8 91 26 14   100.58     LegendNANA
18:00 6.9 5.9 93 25 7   100.61     LegendNANA
19:00 6.7 4.9 88 25 10   100.62     LegendNANA
20:00 6.2 4.4 88 25 8   100.66     LegendNANA
21:00 6.3 4.2 87 25 11   100.69     LegendNANA
22:00 5.9 3.8 86 26 10   100.73     LegendNANA
23:00 5.6 2.9 82 26 12   100.74     LegendNANA

Notes on Data Quality.

Legend

  • E = Estimated
  • M = Missing
  • NA = Not Available
Date modified: